Change the Weather History Date:

Wednesday, May 8, 2013

  Actual Average Record
Temperature  
Mean Temperature 64 °F 70 °F  
Max Temperature 80 °F 83 °F 96 °F (1986)
Min Temperature 47 °F 57 °F 42 °F (1989)
Degree Days  
Heating Degree Days 1 1  
Month to date heating degree days 30 8  
Since 1 July heating degree days 2265 2315  
Cooling Degree Days 0 5  
Month to date cooling degree days 1 36  
Year to date cooling degree days 59 120  
Growing Degree Days 13 (Base 50)    
Moisture  
Dew Point 53 °F    
Average Humidity 70    
Maximum Humidity 100    
Minimum Humidity 39    
Precipitation  
Precipitation 0.00 in 0.08 in 1.67 in (1952)
Month to date precipitation 2.56 0.63  
Year to date precipitation 27.30 16.74  
Sea Level Pressure  
Sea Level Pressure 30.03 in    
Wind  
Wind Speed 5 mph (West)    
Max Wind Speed 14 mph    
Max Gust Speed 18 mph    
Visibility 10 miles    
Events      
T = Trace of Precipitation, MM = Missing Value Source: NWS Daily Summary

Daily Weather History Graph

Daily Weather History Graph

Search for Another Location

Airport or City:

Trip Planner

Search our weather history database for the weather conditions in past years. The results will help you decide how hot, cold, wet, or windy it might be!

Date:

Astronomy

May. 08, 2013 Rise Set
Actual Time 6:41 AM EDT 8:21 PM EDT
Civil Twilight 6:14 AM EDT 8:48 PM EDT
Nautical Twilight 5:42 AM EDT 9:20 PM EDT
Astronomical Twilight 5:08 AM EDT 9:54 PM EDT
Moon 5:44 AM EDT (5/8) 7:21 PM EDT (5/8)
Length of Visible Light 14h 33m
Length of Day
13h 40m
Waning Crescent, 2% of the Moon is Illuminated
May 8
Waning Crescent
May 9
New
May 18
First Quarter
May 25
Full
May 31
Last Quarter

Hourly Weather History & Observations

Time (EDT) Temp. Dew Point Humidity Pressure Visibility Wind Dir Wind Speed Gust Speed Precip Events Conditions
12:53 AM 51.1 °F 50.0 °F 96% 30.00 in 10.0 mi Calm Calm - N/A   Clear
1:53 AM 50.0 °F 50.0 °F 100% 29.99 in 10.0 mi West 3.5 mph - N/A   Clear
2:53 AM 51.1 °F 48.9 °F 92% 29.98 in 10.0 mi West 4.6 mph - N/A   Clear
3:53 AM 50.0 °F 48.9 °F 96% 29.99 in 10.0 mi West 4.6 mph - N/A   Clear
4:53 AM 51.1 °F 48.9 °F 92% 29.99 in 10.0 mi West 4.6 mph - N/A   Clear
5:53 AM 50.0 °F 48.9 °F 96% 30.00 in 10.0 mi WNW 3.5 mph - N/A   Clear
6:53 AM 48.0 °F 46.9 °F 96% 30.02 in 9.0 mi Calm Calm - N/A   Clear
7:53 AM 54.0 °F 51.1 °F 90% 30.05 in 10.0 mi Calm Calm - N/A   Clear
8:53 AM 60.1 °F 54.0 °F 80% 30.06 in 10.0 mi West 3.5 mph - N/A   Clear
9:53 AM 66.9 °F 54.0 °F 63% 30.07 in 10.0 mi West 9.2 mph - N/A   Clear
10:53 AM 70.0 °F 55.0 °F 59% 30.08 in 10.0 mi West 10.4 mph - N/A   Clear
11:53 AM 72.0 °F 54.0 °F 53% 30.07 in 10.0 mi West 10.4 mph 18.4 mph N/A   Clear
12:53 PM 75.9 °F 54.0 °F 46% 30.06 in 10.0 mi West 9.2 mph - N/A   Mostly Cloudy
1:53 PM 75.9 °F 54.0 °F 46% 30.05 in 10.0 mi NW 5.8 mph - N/A   Mostly Cloudy
2:53 PM 75.0 °F 53.1 °F 46% 30.04 in 10.0 mi WSW 9.2 mph 16.1 mph N/A   Scattered Clouds
3:53 PM 75.0 °F 50.0 °F 41% 30.03 in 10.0 mi WNW 10.4 mph - N/A   Scattered Clouds
4:53 PM 79.0 °F 51.1 °F 38% 30.01 in 10.0 mi West 8.1 mph 17.3 mph N/A   Partly Cloudy
5:53 PM 78.1 °F 52.0 °F 40% 30.01 in 10.0 mi West 8.1 mph - N/A   Mostly Cloudy
6:53 PM 75.0 °F 54.0 °F 48% 30.01 in 10.0 mi West 4.6 mph - N/A   Scattered Clouds
7:53 PM 73.0 °F 57.0 °F 57% 30.02 in 10.0 mi Calm Calm - N/A   Partly Cloudy
8:53 PM 64.0 °F 59.0 °F 84% 30.04 in 10.0 mi WSW 3.5 mph - N/A   Clear
9:53 PM 62.1 °F 59.0 °F 90% 30.05 in 10.0 mi Calm Calm - N/A   Clear
10:53 PM 60.1 °F 59.0 °F 96% 30.07 in 8.0 mi Calm Calm - N/A   Clear
11:53 PM 57.9 °F 57.9 °F 100% 30.08 in 7.0 mi West 4.6 mph - N/A   Clear